Date String (YYYY-MM-DD hh:mm:ss) UTC,Instrument flags,absolute air pressure of the measurement (hPa),sample flow rate (lpm),inlet stack bypass flow (lpm),air temperature of the measurement (°C),ambient temperature measured by the external sensor (°C),aerosol sample conditioner tube jacket temperature (°C),OPC LED temperature (°C),internal box temperature (°C),relative humidity of the measurement (%),span deviation,mass concentration of particles derived from Lorenz-Mie calculation of OPC scattering (μg/m³),mass concentration of particles derived from Lorenz-Mie calculation of OPC scattering (μg/m³),mass concentration of particles derived from Lorenz-Mie calculation of OPC scattering (μg/m³)
DateTimeUTC,F1_M11,P_M11,Q1_M11,Q2_M11,T1_M11,T2_M11,T3_M11,T4_M11,T5_M11,U1_M11,ZSPAN_M11,X0_M11,X2_M11,X1_M11
2024-05-18 06:00:00,SystemResetWarning,0824.1,5.01,000.00,024.9,024.4,000.0,032.7,026.7,018.4,0000.0,0011.75,0003.40,0002.31
2024-05-18 06:01:00,SystemResetWarning,0824.2,5.00,000.00,024.9,024.4,000.0,032.8,026.8,018.4,0000.0,0011.15,0003.36,0002.30
2024-05-18 06:02:00,SystemResetWarning,0824.2,4.99,000.00,025.0,024.5,000.0,032.8,026.8,018.3,0000.0,0010.83,0003.32,0002.29
2024-05-18 06:03:00,SystemResetWarning,0824.3,4.99,000.00,025.0,024.5,000.0,032.8,026.8,018.2,0000.0,0010.78,0003.32,0002.30
2024-05-18 06:04:00,SystemResetWarning,0824.1,4.99,000.00,024.8,023.0,000.0,032.9,026.0,018.2,0000.0,0010.85,0003.34,0002.32
2024-05-18 06:05:00,SystemResetWarning,0824.2,5.01,000.00,024.4,021.5,000.0,033.0,025.2,018.7,0000.0,0010.99,0003.39,0002.33
2024-05-18 06:06:00,SystemResetWarning,0824.2,5.01,000.00,024.3,021.7,000.0,032.9,025.2,018.9,0000.0,0010.61,0003.39,0002.33
2024-05-18 06:07:00,SystemResetWarning,0824.1,5.00,000.00,024.2,022.0,000.0,032.8,025.4,018.9,0000.0,0009.39,0003.36,0002.34
2024-05-18 06:08:00,SystemResetWarning,0824.1,5.00,000.00,024.2,022.4,000.0,032.7,025.6,018.7,0000.0,0008.66,0003.36,0002.34
2024-05-18 06:09:00,SystemResetWarning,0824.2,5.00,000.00,024.3,022.7,000.0,032.6,025.8,018.6,0000.0,0008.54,0003.40,0002.34
2024-05-18 06:10:00,SystemResetWarning,0824.2,5.00,000.00,024.3,023.0,000.0,032.6,026.0,018.4,0000.0,0008.56,0003.37,0002.35
2024-05-18 06:11:00,SystemResetWarning,0824.2,5.00,000.00,024.3,023.2,000.0,032.6,026.1,018.4,0000.0,0008.56,0003.36,0002.36
2024-05-18 06:12:00,SystemResetWarning,0824.3,5.00,000.00,024.4,023.4,000.0,032.6,026.2,018.2,0000.0,0008.60,0003.39,0002.37
2024-05-18 06:13:00,SystemResetWarning,0824.2,4.99,000.00,024.4,023.6,000.0,032.6,026.3,018.2,0000.0,0008.46,0003.41,0002.38
2024-05-18 06:14:00,SystemResetWarning,0824.2,4.99,000.00,024.5,023.7,000.0,032.6,026.3,018.0,0000.0,0008.29,0003.38,0002.37
2024-05-18 06:15:00,SystemResetWarning,0824.3,4.99,000.00,024.5,023.9,000.0,032.6,026.4,018.1,0000.0,0008.13,0003.35,0002.37
2024-05-18 06:16:00,SystemResetWarning,0824.3,5.01,000.00,024.6,024.0,000.0,032.6,026.5,018.1,0000.0,0007.97,0003.31,0002.37
2024-05-18 06:17:00,SystemResetWarning,0824.3,5.01,000.00,024.6,024.1,000.0,032.6,026.5,017.9,0000.0,0007.92,0003.31,0002.38
2024-05-18 06:18:00,SystemResetWarning,0824.3,5.00,000.00,024.7,024.1,000.0,032.7,026.6,017.7,0000.0,0007.76,0003.34,0002.40
2024-05-18 06:19:00,SystemResetWarning,0824.3,5.00,000.00,024.8,024.2,000.0,032.7,026.6,018.0,0000.0,0007.98,0003.38,0002.41
2024-05-18 06:20:00,SystemResetWarning,0824.3,5.01,000.00,024.8,024.3,000.0,032.7,026.7,017.9,0000.0,0007.54,0003.37,0002.42
2024-05-18 06:21:00,SystemResetWarning,0824.3,5.00,000.00,024.9,024.4,000.0,032.8,026.7,017.9,0000.0,0007.52,0003.34,0002.40
2024-05-18 06:22:00,SystemResetWarning,0824.3,5.00,000.00,024.9,024.4,000.0,032.8,026.8,017.8,0000.0,0007.73,0003.34,0002.38
2024-05-18 06:23:00,SystemResetWarning,0824.3,4.99,000.00,025.0,024.5,000.0,032.8,026.8,017.6,0000.0,0007.71,0003.31,0002.37
2024-05-18 06:24:00,SystemResetWarning,0824.3,5.00,000.00,025.0,024.5,000.0,032.9,026.8,017.6,0000.0,0008.42,0003.32,0002.36
2024-05-18 06:25:00,SystemResetWarning,0824.3,5.00,000.00,025.0,024.6,000.0,032.9,026.9,017.7,0000.0,0008.60,0003.33,0002.35
2024-05-18 06:26:00,SystemResetWarning,0824.2,5.00,000.00,025.1,024.5,000.0,032.9,026.9,017.6,0000.0,0008.94,0003.36,0002.35
2024-05-18 06:27:00,SystemResetWarning,0824.1,4.99,000.00,024.9,022.8,000.0,033.0,025.9,017.7,0000.0,0009.29,0003.40,0002.36
2024-05-18 06:28:00,SystemResetWarning,0824.2,5.01,000.00,024.5,021.5,000.0,033.1,025.2,018.2,0000.0,0009.34,0003.40,0002.37
2024-05-18 06:29:00,SystemResetWarning,0824.2,5.02,000.00,024.3,021.7,000.0,033.0,025.2,018.4,0000.0,0009.35,0003.38,0002.36
2024-05-18 06:30:00,SystemResetWarning,0824.1,4.99,000.00,024.2,022.1,000.0,032.9,025.4,018.5,0000.0,0009.03,0003.36,0002.36
2024-05-18 06:31:00,SystemResetWarning,0824.1,5.00,000.00,024.3,022.4,000.0,032.8,025.6,018.4,0000.0,0008.67,0003.39,0002.37
2024-05-18 06:32:00,SystemResetWarning,0824.2,5.00,000.00,024.3,022.7,000.0,032.7,025.9,018.4,0000.0,0008.65,0003.44,0002.40
2024-05-18 06:33:00,SystemResetWarning,0824.2,5.01,000.00,024.3,023.0,000.0,032.7,026.0,018.5,0000.0,0008.53,0003.45,0002.43
2024-05-18 06:34:00,SystemResetWarning,0824.2,4.99,000.00,024.4,023.2,000.0,032.7,026.1,018.4,0000.0,0008.69,0003.45,0002.45
2024-05-18 06:35:00,SystemResetWarning,0824.2,5.00,000.00,024.4,023.5,000.0,032.6,026.2,018.4,0000.0,0008.02,0003.45,0002.47
2024-05-18 06:36:00,SystemResetWarning,0824.3,5.00,000.00,024.5,023.6,000.0,032.6,026.3,018.4,0000.0,0007.87,0003.45,0002.48
2024-05-18 06:37:00,SystemResetWarning,0824.3,5.00,000.00,024.5,023.8,000.0,032.7,026.4,018.3,0000.0,0007.74,0003.48,0002.49
2024-05-18 06:38:00,SystemResetWarning,0824.3,5.00,000.00,024.6,023.9,000.0,032.7,026.4,018.3,0000.0,0007.69,0003.47,0002.51
2024-05-18 06:39:00,SystemResetWarning,0824.3,5.00,000.00,024.7,024.0,000.0,032.7,026.5,018.2,0000.0,0007.66,0003.47,0002.51
2024-05-18 06:40:00,SystemResetWarning,0824.3,4.99,000.00,024.7,024.1,000.0,032.7,026.6,018.1,0000.0,0007.52,0003.45,0002.52
2024-05-18 06:41:00,SystemResetWarning,0824.4,4.99,000.00,024.8,024.2,000.0,032.7,026.6,018.1,0000.0,0007.49,0003.47,0002.54
2024-05-18 06:42:00,SystemResetWarning,0824.4,4.99,000.00,024.8,024.3,000.0,032.8,026.7,018.0,0000.0,0007.32,0003.46,0002.54
2024-05-18 06:43:00,SystemResetWarning,0824.4,5.00,000.00,024.9,024.3,000.0,032.8,026.7,018.0,0000.0,0007.51,0003.43,0002.55
2024-05-18 06:44:00,SystemResetWarning,0824.4,5.00,000.00,024.9,024.4,000.0,032.8,026.7,017.8,0000.0,0007.52,0003.41,0002.55
2024-05-18 06:45:00,SystemResetWarning,0824.4,5.00,000.00,025.0,024.4,000.0,032.9,026.8,017.8,0000.0,0007.36,0003.42,0002.55
2024-05-18 06:46:00,SystemResetWarning,0824.4,5.01,000.00,025.0,024.5,000.0,032.9,026.8,017.8,0000.0,0007.66,0003.40,0002.55
2024-05-18 06:47:00,SystemResetWarning,0824.4,5.00,000.00,025.0,024.6,000.0,032.9,026.9,017.7,0000.0,0007.76,0003.43,0002.56
2024-05-18 06:48:00,SystemResetWarning,0824.4,5.00,000.00,025.1,024.6,000.0,033.0,026.9,017.7,0000.0,0007.75,0003.44,0002.57
2024-05-18 06:49:00,SystemResetWarning,0824.3,5.01,000.00,025.1,024.6,000.0,033.0,027.0,017.7,0000.0,0007.54,0003.46,0002.60
2024-05-18 06:50:00,SystemResetWarning,0824.4,4.99,000.00,025.2,024.7,000.0,033.0,027.0,017.6,0000.0,0007.97,0003.47,0002.60
2024-05-18 06:51:00,SystemResetWarning,0824.4,4.99,000.00,025.2,024.7,000.0,033.1,027.0,017.6,0000.0,0008.57,0003.53,0002.62
2024-05-18 06:52:00,SystemResetWarning,0824.3,5.00,000.00,025.1,023.2,000.0,033.2,026.2,017.7,0000.0,0008.74,0003.56,0002.62
2024-05-18 06:53:00,SystemResetWarning,0824.3,5.00,000.00,024.6,021.7,000.0,033.2,025.3,018.1,0000.0,0008.75,0003.56,0002.62
2024-05-18 06:54:00,SystemResetWarning,0824.3,5.02,000.00,024.4,021.8,000.0,033.1,025.2,018.3,0000.0,0008.58,0003.59,0002.61
2024-05-18 06:55:00,SystemResetWarning,0824.3,4.99,000.00,024.3,022.1,000.0,033.0,025.4,018.4,0000.0,0008.95,0003.59,0002.62
2024-05-18 06:56:00,SystemResetWarning,0824.3,5.00,000.00,024.4,022.5,000.0,032.9,025.7,018.4,0000.0,0009.39,0003.58,0002.62
2024-05-18 06:57:00,SystemResetWarning,0824.4,5.00,000.00,024.4,022.8,000.0,032.8,025.9,018.4,0000.0,0009.39,0003.62,0002.67
2024-05-18 06:58:00,SystemResetWarning,0824.4,5.00,000.00,024.4,023.1,000.0,032.8,026.1,018.3,0000.0,0009.76,0003.61,0002.67
2024-05-18 06:59:00,SystemResetWarning,0824.4,4.99,000.00,024.5,023.3,000.0,032.8,026.2,018.3,0000.0,0010.62,0003.63,0002.67
